[[{"header":{"parameterUnit":"m.s-1","parameterCategory":1,"la1":30.2991,"la2":30.254,"lo1":-89.0895,"lo2":-89.0444,"dy":0.0017,"dx":0.0017,"nx":28,"ny":28,"refTime":"2024-09-30T09:00:00:Z","depth":0,"parameterNumber":2,"parameterNumberName":"U-component_of_WINDS"},"data":[0,0,0,0,0,0,0,0,0,0,0,0,0,0,0,0,0,0,0,0,0,0,0,0,0,0,0,0,0,0,0,0,0,0,0,0,0,0,0,0,0,0,0,0,0,0,0,0,0,0,0,0,0,0,0,0,0,0,-0.5095,-0.5095,0,-0.5057,-0.5056,-0.5056,-0.5043,-0.5043,-0.5043,-0.5043,-0.5001,-0.5,-0.4998,0,0,0,0,0,0,0,0,0,0,0,0,0,-0.5154,-0.5153,-0.5095,-0.5095,-0.5094,-0.5057,-0.5056,-0.5056,-0.5043,-0.5043,-0.5043,-0.5043,-0.5001,-0.5,-0.4998,0,0,0,0,0,0,0,0,0,0,0,0,0,-0.5123,-0.5152,-0.5095,-0.5083,-0.5082,-0.5057,-0.5056,-0.5056,-0.5043,-0.5043,-0.5043,-0.5043,-0.5002,-0.5,-0.4998,-0.4982,0,0,-0.4992,-0.4991,0,0,0,0,0,0,0,0,-0.5125,-0.5121,-0.5086,-0.5084,-0.5082,-0.5055,-0.5062,-0.5031,-0.5043,-0.5057,-0.5043,-0.5044,-0.5019,-0.5015,-0.5007,-0.498,-0.4978,-0.4992,-0.4991,-0.499,-0.499,0,0,0,0,0,0,0,-0.5127,-0.5123,-0.508,-0.5085,-0.5083,-0.5079,-0.5075,-0.5056,-0.5037,-0.5056,-0.5055,-0.5051,-0.5018,-0.5009,-0.5006,-0.4977,-0.4992,-0.499,-0.4989,-0.4989,-0.4933,-0.4933,0,0,0,0,0,0,-0.5132,-0.5124,-0.5081,-0.5079,-0.5105,-0.5078,-0.5073,-0.5063,-0.5037,-0.5034,-0.5051,-0.5051,-0.5012,-0.5009,-0.5005,-0.4983,-0.499,-0.4988,-0.4987,-0.4933,-0.4933,-0.4932,0,0,0,0,0,0,-0.5133,-0.5128,-0.5083,-0.5101,-0.5095,-0.5076,-0.5066,-0.5063,-0.5054,-0.5033,-0.503,-0.5046,-0.5013,-0.5008,-0.4987,-0.4981,-0.4988,-0.4986,-0.4934,-0.4933,-0.4933,-0.494,0,0,0,0,0,0,-0.5135,-0.5128,-0.5123,-0.5101,-0.5094,-0.5067,-0.5065,-0.5062,-0.5051,-0.5051,-0.5028,-0.5024,-0.5012,-0.499,-0.4986,-0.4979,-0.4984,-0.4934,-0.4933,-0.4933,-0.494,-0.494,-0.4939,0,0,0,0,0,-0.5137,-0.5126,-0.5123,-0.5117,-0.5087,-0.5067,-0.5063,-0.505,-0.5051,-0.5044,-0.5031,-0.5025,-0.4983,-0.4989,-0.4983,-0.4976,-0.4934,-0.4934,-0.4933,-0.494,-0.494,-0.4939,0,0,0,0,0,0,-0.5146,-0.5123,-0.5119,-0.5101,-0.5086,-0.5065,-0.5056,-0.505,-0.5034,-0.5034,-0.5018,-0.5013,-0.4994,-0.4983,-0.4989,-0.4958,-0.4958,-0.4956,-0.4966,-0.4965,-0.4965,-0.4967,-0.4983,0,0,0,0,0,-0.5146,-0.5133,-0.5113,-0.5099,-0.5091,-0.5075,-0.5066,-0.5058,-0.5041,-0.5035,-0.5019,-0.5003,-0.4986,-0.4975,-0.4958,-0.4939,-0.4933,-0.4931,-0.493,-0.493,-0.4928,-0.4916,-0.4915,-0.493,-0.493,-0.493,0,0,-0.5145,-0.5131,-0.5124,-0.51,-0.5088,-0.5073,-0.507,-0.5055,-0.5043,-0.5032,-0.5012,-0.5001,-0.4981,-0.4961,-0.4951,-0.4951,-0.4923,-0.4929,-0.4929,-0.4928,-0.4915,-0.4914,-0.4913,-0.4929,-0.493,-0.493,0,0,-0.5137,-0.5126,-0.5112,-0.51,-0.5082,-0.5071,-0.5068,-0.5047,-0.5039,-0.502,-0.5011,-0.4996,-0.4968,-0.4954,-0.4943,-0.493,-0.4923,-0.4925,-0.4922,-0.4911,-0.4909,-0.4908,-0.4902,-0.4901,-0.4923,-0.4923,-0.4923,0,-0.5139,-0.5117,-0.5106,-0.5091,-0.5081,-0.5071,-0.5057,-0.5045,-0.5022,-0.5014,-0.5014,-0.4978,-0.4964,-0.494,-0.4937,-0.4929,-0.4924,-0.4927,-0.4911,-0.4909,-0.4908,-0.4902,-0.49,-0.4923,-0.4923,-0.4923,-0.4923,0,-0.512,-0.5105,-0.5096,-0.5075,-0.5064,-0.5049,-0.5034,-0.5024,-0.5017,-0.5006,-0.4985,-0.4968,-0.4948,-0.4942,-0.4934,-0.4916,-0.4916,-0.4914,-0.4914,-0.4907,-0.4901,-0.4899,-0.4924,-0.4924,-0.4924,-0.4924,0,0,-0.5116,-0.5089,-0.5085,-0.5075,-0.5054,-0.5042,-0.5027,-0.5008,-0.4998,-0.4983,-0.4969,-0.4945,-0.4942,-0.493,-0.4921,-0.4911,-0.49,-0.4909,-0.4908,-0.4907,-0.4878,-0.4879,-0.4877,-0.4896,-0.4895,-0.4895,-0.4879,0,-0.5104,-0.5077,-0.5067,-0.5044,-0.503,-0.5021,-0.5007,-0.4992,-0.4981,-0.4966,-0.4954,-0.4937,-0.4936,-0.4928,-0.4918,-0.4904,-0.4894,-0.4905,-0.4881,-0.488,-0.4886,-0.4874,-0.4876,-0.4862,-0.4877,-0.4877,-0.4876,0,-0.5087,-0.5072,-0.5049,-0.5029,-0.5022,-0.5011,-0.4992,-0.4978,-0.4961,-0.4953,-0.494,-0.4931,-0.4914,-0.4916,-0.489,-0.4898,-0.4888,-0.4879,-0.4879,-0.4875,-0.4877,-0.4869,-0.4857,-0.4855,-0.4873,-0.4873,-0.4874,0,-0.5085,-0.5059,-0.5041,-0.5033,-0.501,-0.5002,-0.4992,-0.4974,-0.4963,-0.4947,-0.4939,-0.492,-0.491,-0.4895,-0.4881,-0.4884,-0.4857,-0.4858,-0.4849,-0.4849,-0.4843,-0.4843,-0.4827,-0.4838,-0.4838,-0.4838,-0.4838,0,-0.5072,-0.5058,-0.504,-0.503,-0.5013,-0.5,-0.4984,-0.4973,-0.4958,-0.4944,-0.4934,-0.4921,-0.4904,-0.4888,-0.4877,-0.4857,-0.4853,-0.4845,-0.4842,-0.4846,-0.4846,-0.4838,-0.4838,-0.4837,-0.4838,-0.4838,-0.4838,0,-0.5067,-0.5055,-0.5035,-0.5015,-0.501,-0.4998,-0.4981,-0.4969,-0.4958,-0.494,-0.4935,-0.4917,-0.4898,-0.4883,-0.4858,-0.4851,-0.4829,-0.4827,-0.4836,-0.4834,-0.4826,-0.4826,-0.4803,-0.4799,-0.4813,-0.4813,-0.4813,0,-0.506,-0.5049,-0.5028,-0.5018,-0.5009,-0.4993,-0.4982,-0.4969,-0.4958,-0.4937,-0.4927,-0.4908,-0.4892,-0.4861,-0.4845,-0.4826,-0.4822,-0.4815,-0.4818,-0.4822,-0.482,-0.4821,-0.4819,-0.4814,-0.4814,-0.4814,-0.4814,0,-0.5048,-0.5042,-0.5027,-0.501,-0.4997,-0.4983,-0.4968,-0.496,-0.4944,-0.4932,-0.4913,-0.49,-0.4875,-0.4855,-0.4834,-0.4822,-0.4814,-0.4813,-0.481,-0.4812,-0.4818,-0.4814,-0.4833,-0.4813,-0.4813,-0.4813,-0.4813,-0.4814,-0.504,-0.503,-0.5013,-0.4997,-0.4985,-0.4971,-0.4959,-0.4947,-0.4931,-0.491,-0.4903,-0.4883,-0.4865,-0.4836,-0.4824,-0.4807,-0.4806,-0.4802,-0.4801,-0.4799,-0.4799,-0.4821,-0.4803,-0.4803,-0.4803,-0.4803,-0.4803,0,-0.5026,-0.5016,-0.5001,-0.4981,-0.4967,-0.4963,-0.4947,-0.4935,-0.4918,-0.4902,-0.4887,-0.4864,-0.4845,-0.4828,-0.4807,-0.4797,-0.4793,-0.4792,-0.4792,-0.4789,-0.4801,-0.4806,-0.4795,-0.4795,-0.4795,-0.4795,-0.4795,-0.4795,-0.5018,-0.5,-0.4992,-0.4967,-0.4956,-0.4937,-0.4928,-0.4915,-0.4902,-0.4878,-0.4862,-0.4851,-0.4834,-0.4813,-0.4794,-0.479,-0.4782,-0.4781,-0.4776,-0.4787,-0.4788,-0.4789,-0.4793,-0.478,-0.478,-0.4764,-0.4764,-0.4764]},{"header":{"parameterUnit":"m.s-1","parameterCategory":1,"la1":30.2991,"la2":30.254,"lo1":-89.0895,"lo2":-89.0444,"dy":0.0017,"dx":0.0017,"nx":28,"ny":28,"refTime":"2024-09-30T09:00:00:Z","depth":0,"parameterNumber":3,"parameterNumberName":"V-component_of_WINDS"},"data":[0,0,0,0,0,0,0,0,0,0,0,0,0,0,0,0,0,0,0,0,0,0,0,0,0,0,0,0,0,0,0,0,0,0,0,0,0,0,0,0,0,0,0,0,0,0,0,0,0,0,0,0,0,0,0,0,0,0,-2.699,-2.6991,0,-2.6991,-2.6991,-2.6991,-2.697,-2.697,-2.6969,-2.6969,-2.6969,-2.6969,-2.697,0,0,0,0,0,0,0,0,0,0,0,0,0,-2.6971,-2.6972,-2.699,-2.6991,-2.6991,-2.6991,-2.6991,-2.6991,-2.697,-2.697,-2.6969,-2.6968,-2.6968,-2.6969,-2.697,0,0,0,0,0,0,0,0,0,0,0,0,0,-2.6976,-2.6972,-2.699,-2.698,-2.6979,-2.6991,-2.6991,-2.6991,-2.6971,-2.697,-2.6969,-2.6968,-2.6968,-2.6969,-2.697,-2.6991,0,0,-2.6972,-2.6972,0,0,0,0,0,0,0,0,-2.6976,-2.6977,-2.6982,-2.6981,-2.698,-2.698,-2.6984,-2.6991,-2.6971,-2.6974,-2.6969,-2.6968,-2.6973,-2.6973,-2.6975,-2.6991,-2.6991,-2.6972,-2.6973,-2.6973,-2.6973,0,0,0,0,0,0,0,-2.6976,-2.6977,-2.6991,-2.6982,-2.6981,-2.6976,-2.6975,-2.6985,-2.6978,-2.6974,-2.6972,-2.6972,-2.6972,-2.6974,-2.6975,-2.6991,-2.6972,-2.6973,-2.6973,-2.6974,-2.7023,-2.7024,0,0,0,0,0,0,-2.6977,-2.6977,-2.6991,-2.6991,-2.6976,-2.6977,-2.6976,-2.6981,-2.6978,-2.6977,-2.6973,-2.6971,-2.6974,-2.6974,-2.6975,-2.6999,-2.6973,-2.6974,-2.6974,-2.7022,-2.7024,-2.7024,0,0,0,0,0,0,-2.6977,-2.6978,-2.6991,-2.6983,-2.6985,-2.6978,-2.6983,-2.6981,-2.6983,-2.6978,-2.6976,-2.6977,-2.6973,-2.6974,-2.6987,-2.6998,-2.6974,-2.6975,-2.7021,-2.7023,-2.7024,-2.7047,0,0,0,0,0,0,-2.6976,-2.6978,-2.6986,-2.6984,-2.6985,-2.7003,-2.6983,-2.6982,-2.6985,-2.6982,-2.698,-2.6979,-2.6972,-2.6986,-2.6988,-2.6999,-2.6975,-2.702,-2.7022,-2.7024,-2.7045,-2.7049,-2.7052,0,0,0,0,0,-2.6976,-2.6993,-2.6987,-2.6989,-2.6995,-2.7004,-2.7004,-2.6996,-2.6986,-2.6993,-2.699,-2.6979,-2.6997,-2.6987,-2.6989,-2.7001,-2.702,-2.7022,-2.7023,-2.7043,-2.7048,-2.7052,0,0,0,0,0,0,-2.6997,-2.6992,-2.6986,-2.7003,-2.7004,-2.7,-2.7009,-2.7001,-2.7005,-2.7003,-2.6992,-2.6992,-2.7007,-2.7005,-2.6995,-2.7021,-2.7006,-2.7009,-2.7021,-2.7025,-2.7029,-2.7028,-2.6976,0,0,0,0,0,-2.7003,-2.7011,-2.7007,-2.7022,-2.7023,-2.7016,-2.702,-2.7013,-2.7014,-2.7014,-2.7011,-2.7012,-2.7018,-2.7022,-2.7027,-2.7045,-2.7044,-2.7054,-2.7058,-2.706,-2.7062,-2.7071,-2.7075,-2.7031,-2.7031,-2.7031,0,0,-2.7017,-2.7016,-2.7021,-2.7026,-2.7026,-2.7034,-2.7017,-2.7026,-2.7031,-2.7015,-2.7027,-2.7026,-2.7026,-2.7041,-2.7048,-2.7041,-2.7074,-2.7063,-2.7065,-2.7065,-2.7073,-2.7078,-2.7081,-2.7032,-2.7032,-2.7032,0,0,-2.7046,-2.7046,-2.7058,-2.7059,-2.7059,-2.7055,-2.7058,-2.7056,-2.7054,-2.7066,-2.7054,-2.706,-2.7071,-2.7071,-2.7073,-2.7102,-2.7092,-2.7104,-2.7121,-2.713,-2.7134,-2.7137,-2.7146,-2.715,-2.7106,-2.7106,-2.7106,0,-2.7062,-2.7073,-2.7065,-2.7075,-2.7077,-2.7064,-2.7076,-2.7077,-2.7079,-2.7081,-2.7073,-2.7085,-2.7085,-2.71,-2.7107,-2.7109,-2.7112,-2.7103,-2.7134,-2.7137,-2.714,-2.7148,-2.7152,-2.7108,-2.7107,-2.7107,-2.7107,0,-2.7093,-2.7102,-2.7112,-2.7114,-2.7118,-2.7128,-2.7122,-2.7127,-2.712,-2.7117,-2.7129,-2.7128,-2.7132,-2.7136,-2.7129,-2.715,-2.7145,-2.7136,-2.7121,-2.7145,-2.7153,-2.7157,-2.7109,-2.7109,-2.7109,-2.7108,0,0,-2.7134,-2.7132,-2.7136,-2.7136,-2.7136,-2.7142,-2.7153,-2.7157,-2.7161,-2.7163,-2.7171,-2.718,-2.7171,-2.7173,-2.7167,-2.7175,-2.7197,-2.7165,-2.7165,-2.717,-2.7218,-2.7224,-2.7228,-2.7191,-2.7192,-2.7193,-2.7218,0,-2.716,-2.7178,-2.7171,-2.7189,-2.7196,-2.7184,-2.7193,-2.7193,-2.7191,-2.7196,-2.7193,-2.7199,-2.7188,-2.7189,-2.7196,-2.7193,-2.7207,-2.7191,-2.7198,-2.7198,-2.7196,-2.7233,-2.7239,-2.7263,-2.7221,-2.7222,-2.7222,0,-2.7193,-2.7197,-2.7215,-2.7213,-2.7216,-2.7224,-2.7227,-2.7233,-2.7234,-2.7231,-2.7234,-2.7226,-2.7236,-2.7222,-2.7235,-2.7225,-2.7227,-2.7226,-2.7227,-2.7226,-2.721,-2.7231,-2.727,-2.7273,-2.7227,-2.7227,-2.7226,0,-2.7219,-2.7228,-2.724,-2.7242,-2.7241,-2.7246,-2.7246,-2.7246,-2.7249,-2.7252,-2.7254,-2.7258,-2.726,-2.7264,-2.7257,-2.7248,-2.7271,-2.7257,-2.7268,-2.7268,-2.7272,-2.7272,-2.7311,-2.7276,-2.7276,-2.7276,-2.7276,0,-2.7248,-2.7259,-2.7252,-2.7259,-2.7272,-2.7264,-2.7277,-2.7275,-2.7275,-2.7282,-2.7272,-2.7279,-2.7271,-2.7276,-2.7272,-2.7282,-2.7284,-2.7281,-2.728,-2.7281,-2.7281,-2.7282,-2.7279,-2.7277,-2.7277,-2.7277,-2.7277,0,-2.7278,-2.7274,-2.7286,-2.7284,-2.7284,-2.7293,-2.7291,-2.7298,-2.7295,-2.7303,-2.7305,-2.73,-2.7306,-2.7301,-2.7306,-2.7303,-2.7317,-2.7314,-2.7317,-2.7315,-2.7326,-2.7325,-2.7366,-2.737,-2.7335,-2.7335,-2.7335,0,-2.7296,-2.7305,-2.7304,-2.7308,-2.7308,-2.7315,-2.7318,-2.7311,-2.7315,-2.7316,-2.7322,-2.7328,-2.7331,-2.7342,-2.7338,-2.7343,-2.7339,-2.7353,-2.7339,-2.734,-2.7337,-2.7336,-2.7337,-2.7355,-2.7355,-2.7356,-2.7356,0,-2.7328,-2.7326,-2.7331,-2.7335,-2.7339,-2.7342,-2.7344,-2.7348,-2.7341,-2.7346,-2.7352,-2.7355,-2.7361,-2.7366,-2.737,-2.7369,-2.7361,-2.7361,-2.7363,-2.7364,-2.7365,-2.7363,-2.7323,-2.7359,-2.7359,-2.7359,-2.7358,-2.7358,-2.7352,-2.7359,-2.7359,-2.7365,-2.7366,-2.7369,-2.7374,-2.7372,-2.7378,-2.7382,-2.7378,-2.7385,-2.7386,-2.739,-2.739,-2.7396,-2.739,-2.7394,-2.7394,-2.7395,-2.7396,-2.7365,-2.7396,-2.7396,-2.7396,-2.7396,-2.7396,0,-2.7382,-2.7382,-2.7388,-2.7391,-2.7396,-2.7389,-2.7391,-2.7395,-2.7402,-2.7403,-2.7407,-2.7414,-2.7419,-2.7417,-2.7421,-2.7426,-2.7423,-2.7427,-2.7426,-2.7426,-2.7402,-2.7399,-2.743,-2.743,-2.743,-2.743,-2.743,-2.743,-2.7399,-2.741,-2.7407,-2.7419,-2.7418,-2.7426,-2.7427,-2.7429,-2.743,-2.7439,-2.7443,-2.7442,-2.7441,-2.7446,-2.745,-2.7449,-2.7451,-2.7456,-2.7454,-2.7431,-2.7428,-2.7425,-2.7421,-2.7457,-2.7457,-2.7478,-2.7478,-2.7478]}]]